Miscellaneous Local Product
Issued by NWS North Platte, NE

Home | Current Version | Previous Version | Text Only | Print | Product List | Glossary On
Versions: 1 2 3 4 5 6 7 8 9 10 11 12 13 14 15 16 17 18 19 20 21 22 23 24 25 26 27 28 29 30 31 32 33 34 35 36 37 38 39 40 41 42 43 44 45 46 47 48 49 50
000
AXUS43 KLBF 270410
MISLBF


WESTERN AND NORTH CENTRAL NEBRASKA HOURLY WEATHER ROUNDUP
NATIONAL WEATHER SERVICE NORTH PLATTE NE
1000 PM CST WED NOV 26 2014

***STATIONS NOT REPORTING VARIABLES SUCH AS SKY/WEATHER OR
PRESSURE ARE PROVIDED BY THE NEBRASKA DEPARTMENT OF
ROADS...RAWS...AND APRS NETWORKS...AND ARE NOT UNDER
NATIONAL WEATHER SERVICE QUALITY CONTROL***

...OBSERVATIONS IN AND NEAR THE EASTERN PANHANDLE OF NEBRASKA...

CITY           SKY/WX    TMP DP  RH WIND       PRES   REMARKS
PINE RIDGE     CLOUDY    29  25  85 CALM      30.27F
CHADRON        CLOUDY   N/A N/A N/A S10       30.26F
ALLIANCE       CLOUDY    24  23  96 SW6       30.28R WCI  17
SIDNEY         PTCLDY    17  14  88 S9        30.28S WCI   6
WHITECLAY        N/A     28  23  82 E6          N/A  WCI  21
CRESCENT LAKE    N/A     25  23  91 SW5G12      N/A  WCI  19
LISCO            N/A     24  21  87 N3          N/A
BIG SPRINGS      N/A     30  29  95 CALM        N/A
$$

...OBSERVATIONS IN NORTH CENTRAL NEBRASKA...

CITY           SKY/WX    TMP DP  RH WIND       PRES   REMARKS
VALENTINE      CLOUDY    23  18  81 E5        30.35S WCI  17
THEDFORD       MOCLDY    24  19  83 SE6       30.34R WCI  16
AINSWORTH      CLOUDY    21  17  86 SE3       30.35F
O`NEILL        PTCLDY    16  11  82 NE3       30.41S
ORD            MOCLDY    21  15  78 CALM      30.41R
BROKEN BOW     MOCLDY    21  15  78 NE5       30.38S WCI  15
BROWNLEE         N/A     22  17  83 S7          N/A  WCI  13
SPRINGVIEW       N/A     19  14  81 CALM        N/A
BREWSTER         N/A     23  19  86 SE7         N/A  WCI  15
SARGENT          N/A     19  15  85 CALM        N/A
COMSTOCK         N/A     26  20  79 CALM        N/A
CHAMBERS         N/A     15   5  65 CALM        N/A
EWING            N/A     15  11  82 CALM        N/A
$$

...OBSERVATIONS IN SOUTHWEST NEBRASKA AND FAR NORTHEAST COLORADO...

CITY           SKY/WX    TMP DP  RH WIND       PRES   REMARKS
WRAY           CLOUDY    29  26  90 CALM      30.33R
HOLYOKE        FAIR      32  28  86 S3        30.32S
IMPERIAL       CLOUDY    31  27  85 SE3       30.33S
OGALLALA       PTCLDY    28  28  98 SW3       30.31F FOG
NORTH PLATTE   CLOUDY    25  19  78 SE5       30.34F WCI  19
MCCOOK         CLOUDY    31  20  63 CALM      30.37F
LEXINGTON      MOCLDY    24  18  78 CALM      30.38S
PAXTON           N/A     29  26  89 CALM        N/A
BRADY            N/A     25  18  75 CALM        N/A
GOTHENBURG       N/A     28  20  72 CALM        N/A
CALLAWAY         N/A     22  18  84 NE7         N/A  WCI  14
$$

...NORTH PLATTE AREA...

CITY           SKY/WX    TMP DP  RH WIND       PRES   REMARKS
AIRPORT        CLOUDY    25  19  78 SE5       30.34F WCI  19
DOWNTOWN         N/A     28  21  74 CALM        N/A
$$

...SOME WEATHER OBSERVATIONS FROM AROUND THE REGION...

CITY           SKY/WX    TMP DP  RH WIND       PRES   REMARKS
DENVER         PTCLDY    24  21  88 N5        30.24R WCI  18
LARAMIE        PTCLDY    38  25  59 W20       30.24R WCI  28
CHEYENNE       CLEAR     24  20  84 SW3       30.21R
SCOTTSBLUFF    CLOUDY    24  22  91 E9        30.26F WCI  14
RAPID CITY     CLOUDY    28  24  85 E6        30.28R WCI  22
PIERRE         CLOUDY    14   8  77 E8        30.43R WCI   3
WINNER         CLOUDY    19  10  68 E8        30.40R WCI   9
SIOUX FALLS    PTCLDY     8   0  69 N7        30.43R WCI  -3
OMAHA          CLOUDY    23  18  81 N15       30.44R WCI  10
GRAND ISLAND   MOCLDY    22  16  78 N3        30.43R
KANSAS CITY    CLOUDY    29  22  75 NW12      30.36R WCI  19
WICHITA        PTCLDY    34  21  59 N14       30.42R WCI  25
HAYS           CLOUDY    34  16  47 NE9       30.41R WCI  26
LIBERAL        PTCLDY    32  16  51 E3        30.41R
GOODLAND       CLOUDY    26  24  92 SE5       30.35R WCI  20
$$



USA.gov is the U.S. government's official web portal to all federal, state and local government web resources and services.